TimeMST,TemperatureF,Dew PointF,Humidity,Sea Level PressureIn,VisibilityMPH,Wind Direction,Wind SpeedMPH,Gust SpeedMPH,PrecipitationIn,Events,Conditions,WindDirDegrees,DateUTC
12:53 AM,77.0,27.0,16,29.65,10.0,Calm,Calm,-,N/A,,Clear,0,2013-06-08 07:53:00
1:53 AM,79.0,23.0,13,29.64,10.0,SW,4.6,-,N/A,,Clear,220,2013-06-08 08:53:00
2:53 AM,79.0,21.9,12,29.64,10.0,SW,4.6,-,N/A,,Clear,220,2013-06-08 09:53:00
3:53 AM,73.0,21.9,15,29.65,10.0,Calm,Calm,-,N/A,,Clear,0,2013-06-08 10:53:00
4:53 AM,72.0,24.1,17,29.68,10.0,SW,3.5,-,N/A,,Clear,230,2013-06-08 11:53:00
5:53 AM,75.0,27.0,17,29.68,10.0,Calm,Calm,-,N/A,,Clear,0,2013-06-08 12:53:00
6:53 AM,77.0,26.1,15,29.69,10.0,SE,5.8,-,N/A,,Clear,130,2013-06-08 13:53:00
7:53 AM,80.1,26.1,14,29.71,10.0,Calm,Calm,-,N/A,,Clear,0,2013-06-08 14:53:00
8:53 AM,84.9,26.1,12,29.70,10.0,East,3.5,-,N/A,,Clear,100,2013-06-08 15:53:00
9:53 AM,90.0,26.1,10,29.70,10.0,Calm,Calm,-,N/A,,Clear,0,2013-06-08 16:53:00
10:53 AM,93.9,26.1,9,29.69,10.0,North,5.8,-,N/A,,Clear,350,2013-06-08 17:53:00
11:53 AM,97.0,27.0,8,29.67,10.0,Variable,5.8,-,N/A,,Clear,0,2013-06-08 18:53:00
12:53 PM,99.0,28.9,8,29.65,10.0,Variable,4.6,16.1,N/A,,Clear,0,2013-06-08 19:53:00
1:53 PM,100.9,28.9,8,29.63,10.0,WNW,13.8,24.2,N/A,,Clear,300,2013-06-08 20:53:00
2:53 PM,104.0,28.0,7,29.60,10.0,NW,11.5,19.6,N/A,,Clear,320,2013-06-08 21:53:00
3:53 PM,102.9,27.0,7,29.60,10.0,NNW,16.1,23.0,N/A,,Clear,340,2013-06-08 22:53:00
4:53 PM,102.0,27.0,7,29.59,10.0,NNW,10.4,-,N/A,,Clear,340,2013-06-08 23:53:00
5:53 PM,102.0,25.0,7,29.58,10.0,NW,9.2,17.3,N/A,,Clear,320,2013-06-09 00:53:00
6:53 PM,100.0,25.0,7,29.60,10.0,NW,9.2,16.1,N/A,,Clear,310,2013-06-09 01:53:00
7:53 PM,95.0,25.0,8,29.63,10.0,WNW,12.7,18.4,N/A,,Clear,300,2013-06-09 02:53:00
8:53 PM,91.9,25.0,9,29.67,10.0,WNW,9.2,17.3,N/A,,Clear,290,2013-06-09 03:53:00
9:53 PM,90.0,23.0,9,29.70,10.0,West,4.6,-,N/A,,Clear,280,2013-06-09 04:53:00
10:53 PM,86.0,21.9,10,29.71,10.0,West,4.6,-,N/A,,Clear,270,2013-06-09 05:53:00
11:53 PM,82.9,21.0,10,29.72,10.0,West,4.6,-,N/A,,Clear,260,2013-06-09 06:53:00